Battle Creek, MI

7:56 PM EDT on October 14, 2019 (GMT -0400)
Kellogg

Weather History for KBTL - July, 2019

Change the Weather History Date:

Wednesday, July 24, 2019

  Actual Average Record
Temperature  
Mean Temperature 66 °F 71 °F  
Max Temperature 79 °F 82 °F 93 °F (2005)
Min Temperature 55 °F 59 °F 50 °F (2002)
Degree Days  
Heating Degree Days 0 0  
Month to date heating degree days 6  
Since 1 June heating degree days 63  
Since 1 July heating degree days 6  
Cooling Degree Days 2 6  
Month to date cooling degree days 156  
Year to date cooling degree days 320  
Since 1 June cooling degree days 282  
Growing Degree Days 16 (Base 50)    
Moisture  
Dew Point 53 °F    
Average Humidity 63    
Maximum Humidity 93    
Minimum Humidity 39    
Precipitation  
Precipitation 0.00 in 0.11 in 1.66 in (2016)
Month to date precipitation 2.58  
Year to date precipitation 17.29  
Sea Level Pressure  
Sea Level Pressure 30.13 in    
Wind  
Wind Speed 4 mph (NNW)    
Max Wind Speed 10 mph    
Max Gust Speed -    
Visibility 10 miles    
Events      
T = Trace of Precipitation, MM = Missing Value Source: NWS Daily Summary

Daily Weather History Graph

Daily Weather History Graph

Search for Another Location

Airport or City:

Astronomy

Jul. 24, 2019 Rise Set
Actual Time 6:25 AM EDT 9:08 PM EDT
Civil Twilight 5:52 AM EDT 9:41 PM EDT
Nautical Twilight 5:11 AM EDT 10:22 PM EDT
Astronomical Twilight 4:24 AM EDT 11:09 PM EDT
Moon 12:49 AM EDT (7/24) 1:44 PM EDT (7/24)
Length of Visible Light 15h 48m
Length of Day
14h 43m
Waning Gibbous, 54% of the Moon is Illuminated
Jul 24
Waning Gibbous
Jul 24
Last Quarter
Jul 31
New
Aug 7
First Quarter
Aug 15
Full

Hourly Weather History & Observations

Time (EDT) Temp. Dew Point Humidity Pressure Visibility Wind Dir Wind Speed Gust Speed Precip Events Conditions
12:53 AM 63.0 °F 55.9 °F 78% 30.09 in 10.0 mi North 3.5 mph - N/A   Clear
1:53 AM 60.1 °F 55.9 °F 86% 30.09 in 10.0 mi NW 4.6 mph - N/A   Clear
2:53 AM 59.0 °F 55.9 °F 90% 30.09 in 10.0 mi North 4.6 mph - N/A   Clear
3:53 AM 57.0 °F 55.0 °F 93% 30.09 in 10.0 mi NW 4.6 mph - N/A   Clear
4:53 AM 57.0 °F 54.0 °F 89% 30.09 in 10.0 mi NNW 3.5 mph - N/A   Clear
5:53 AM 57.0 °F 53.1 °F 87% 30.11 in 10.0 mi NNW 4.6 mph - N/A   Clear
6:53 AM 55.9 °F 52.0 °F 87% 30.14 in 10.0 mi Calm Calm - N/A   Clear
7:53 AM 59.0 °F 54.0 °F 83% 30.15 in 10.0 mi North 4.6 mph - N/A   Clear
8:53 AM 63.0 °F 54.0 °F 72% 30.16 in 10.0 mi NNE 3.5 mph - N/A   Clear
9:53 AM 68.0 °F 52.0 °F 56% 30.17 in 10.0 mi NNE 4.6 mph - N/A   Clear
10:53 AM 71.1 °F 50.0 °F 47% 30.17 in 10.0 mi NNE 6.9 mph - N/A   Clear
11:53 AM 73.0 °F 50.0 °F 44% 30.17 in 10.0 mi NNW 8.1 mph - N/A   Clear
12:53 PM 73.9 °F 48.9 °F 41% 30.17 in 10.0 mi NNE 3.5 mph - N/A   Clear
1:53 PM 75.9 °F 51.1 °F 42% 30.16 in 10.0 mi Variable 4.6 mph - N/A   Clear
2:53 PM 75.9 °F 51.1 °F 42% 30.14 in 10.0 mi NNE 9.2 mph - N/A   Clear
3:53 PM 77.0 °F 50.0 °F 39% 30.14 in 10.0 mi WNW 4.6 mph - N/A   Clear
4:53 PM 77.0 °F 51.1 °F 40% 30.13 in 10.0 mi Calm Calm - N/A   Clear
5:53 PM 78.1 °F 51.1 °F 39% 30.12 in 10.0 mi Calm Calm - N/A   Clear
6:53 PM 78.1 °F 51.1 °F 39% 30.12 in 10.0 mi NNW 10.4 mph - N/A   Clear
7:53 PM 75.9 °F 52.0 °F 43% 30.13 in 10.0 mi NW 4.6 mph - N/A   Clear
8:53 PM 73.0 °F 53.1 °F 49% 30.14 in 10.0 mi NW 4.6 mph - N/A   Clear
9:53 PM 66.0 °F 57.9 °F 75% 30.14 in 10.0 mi West 5.8 mph - N/A   Clear
10:53 PM 64.9 °F 57.0 °F 75% 30.15 in 10.0 mi West 3.5 mph - N/A   Clear
11:53 PM 64.9 °F 57.0 °F 75% 30.15 in 10.0 mi WSW 3.5 mph - N/A   Clear